| time (UTC) | temp C | wind direction | speed KPH | gust KPH | rain 1hr cm | rain 24hr cm | rain mn cm | humidity % | barometer mb |
| 20260509183008 | 16 | 187 | 1.6 | 11.3 | 0.00 | 0.03 | 0.03 | 73 | 1011.1 |
| 20260509181508 | 15 | 153 | 3.2 | 16.1 | 0.00 | 0.03 | 0.03 | 78 | 1010.9 |
| 20260509180004 | 15 | 159 | 1.6 | 8.0 | 0.00 | 0.03 | 0.03 | 77 | 1011.6 |
| 20260509174503 | 15 | 169 | 1.6 | 14.5 | 0.00 | 0.03 | 0.03 | 72 | 1011.9 |
| 20260509173002 | 16 | 164 | 4.8 | 16.1 | 0.00 | 0.03 | 0.03 | 68 | 1012.0 |
| 20260509171500 | 16 | 198 | 4.8 | 11.3 | 0.00 | 0.03 | 0.03 | 67 | 1011.8 |
| 20260509170107 | 16 | 155 | 0.0 | 8.0 | 0.00 | 0.03 | 0.03 | 70 | 1011.9 |
| 20260509164559 | 15 | 249 | 0.0 | 11.3 | 0.00 | 0.03 | 0.03 | 70 | 1011.9 |
| 20260509163057 | 15 | 167 | 0.0 | 11.3 | 0.00 | 0.03 | 0.03 | 71 | 1011.9 |
| 20260509161552 | 15 | 181 | 3.2 | 12.9 | 0.00 | 0.03 | 0.03 | 71 | 1012.2 |
| 20260509160051 | 15 | 183 | 1.6 | 9.7 | 0.00 | 0.03 | 0.03 | 71 | 1012.3 |
| 20260509154549 | 15 | 180 | 0.0 | 12.9 | 0.00 | 0.03 | 0.03 | 72 | 1012.6 |
| 20260509153055 | 14 | 144 | 1.6 | 11.3 | 0.00 | 0.03 | 0.03 | 73 | 1012.8 |
| 20260509151540 | 13 | 158 | 3.2 | 11.3 | 0.00 | 0.03 | 0.03 | 75 | 1012.8 |
| 20260509150037 | 12 | 178 | 0.0 | 14.5 | 0.00 | 0.03 | 0.03 | 75 | 1012.7 |
| 20260509144534 | 12 | 131 | 1.6 | 8.0 | 0.00 | 0.03 | 0.03 | 76 | 1013.0 |
| 20260509143031 | 11 | 159 | 3.2 | 8.0 | 0.00 | 0.03 | 0.03 | 79 | 1013.3 |
| 20260509141527 | 11 | 139 | 0.0 | 6.4 | 0.00 | 0.03 | 0.03 | 83 | 1013.4 |
| 20260509140023 | 10 | 150 | 3.2 | 9.7 | 0.00 | 0.03 | 0.03 | 88 | 1013.7 |
| 20260509134519 | 10 | 195 | 1.6 | 8.0 | 0.00 | 0.03 | 0.03 | 91 | 1013.9 |
| 20260509133015 | 8 | 150 | 0.0 | 1.6 | 0.00 | 0.03 | 0.03 | 92 | 1013.9 |
| 20260509131513 | 7 | 155 | 0.0 | 3.2 | 0.00 | 0.03 | 0.03 | 91 | 1014.0 |
| 20260509130016 | 7 | 157 | 0.0 | 0.0 | 0.00 | 0.03 | 0.03 | 91 | 1013.9 |
| 20260509124504 | 7 | 157 | 0.0 | 0.0 | 0.00 | 0.03 | 0.03 | 90 | 1013.6 |
| 20260509123002 | 7 | 157 | 0.0 | 1.6 | 0.03 | 0.03 | 0.03 | 90 | 1013.9 |
| 20260509121501 | 6 | 157 | 0.0 | 0.0 | 0.03 | 0.03 | 0.03 | 90 | 1014.2 |
| 20260509120100 | 6 | 157 | 0.0 | 4.8 | 0.03 | 0.03 | 0.03 | 90 | 1014.5 |
| 20260509114604 | 6 | 158 | 0.0 | 8.0 | 0.03 | 0.03 | 0.03 | 90 | 1014.7 |
| 20260509113059 | 6 | 153 | 0.0 | 6.4 | 0.00 | 0.00 | 0.00 | 90 | 1014.7 |
| 20260509111555 | 5 | 167 | 0.0 | 8.0 | 0.00 | 0.00 | 0.00 | 91 | 1014.8 |
| 20260509110053 | 5 | 144 | 0.0 | 1.6 | 0.00 | 0.00 | 0.00 | 90 | 1014.6 |
| 20260509104553 | 4 | 144 | 0.0 | 0.0 | 0.00 | 0.00 | 0.00 | 90 | 1014.3 |
| 20260509103059 | 3 | 144 | 0.0 | 0.0 | 0.00 | 0.00 | 0.00 | 90 | 1014.0 |
| 20260509101559 | 3 | 144 | 0.0 | 0.0 | 0.00 | 0.00 | 0.00 | 89 | 1013.6 |
| 20260509100045 | 3 | 144 | 0.0 | 0.0 | 0.00 | 0.00 | 0.00 | 89 | 1013.5 |
| 20260509094551 | 2 | 144 | 0.0 | 0.0 | 0.00 | 0.00 | 0.00 | 88 | 1013.3 |
| 20260509093043 | 2 | 144 | 0.0 | 0.0 | 0.00 | 0.00 | 0.00 | 87 | 1013.3 |
| 20260509091544 | 2 | 144 | 0.0 | 0.0 | 0.00 | 0.00 | 0.00 | 86 | 1013.4 |
| 20260509090047 | 2 | 144 | 0.0 | 0.0 | 0.00 | 0.00 | 0.00 | 85 | 1013.2 |
| 20260509084544 | 3 | 144 | 0.0 | 0.0 | 0.00 | 0.00 | 0.00 | 85 | 1013.0 |
| 20260509083050 | 3 | 144 | 0.0 | 0.0 | 0.00 | 0.00 | 0.00 | 85 | 1013.2 |
| 20260509081535 | 3 | 144 | 0.0 | 0.0 | 0.00 | 0.00 | 0.00 | 84 | 1013.4 |
| 20260509080034 | 3 | 144 | 0.0 | 0.0 | 0.00 | 0.00 | 0.00 | 84 | 1013.5 |
| 20260509074532 | 3 | 144 | 0.0 | 0.0 | 0.00 | 0.00 | 0.00 | 84 | 1013.3 |
| 20260509073033 | 3 | 144 | 0.0 | 0.0 | 0.00 | 0.00 | 0.00 | 85 | 1013.4 |
| 20260509071535 | 3 | 144 | 0.0 | 0.0 | 0.00 | 0.00 | 0.00 | 84 | 1013.4 |
| 20260509070028 | 3 | 144 | 0.0 | 1.6 | 0.00 | 0.00 | 0.00 | 84 | 1013.3 |
| 20260509064527 | 3 | 136 | 1.6 | 6.4 | 0.00 | 0.00 | 0.00 | 84 | 1013.3 |
| 20260509063024 | 3 | 30 | 0.0 | 0.0 | 0.00 | 0.00 | 0.00 | 83 | 1012.9 |
| 20260509061523 | 4 | 30 | 0.0 | 0.0 | 0.00 | 0.00 | 0.00 | 83 | 1012.9 |
| 20260509060020 | 4 | 30 | 0.0 | 0.0 | 0.00 | 0.00 | 0.00 | 81 | 1012.9 |
| 20260509054519 | 4 | 30 | 0.0 | 1.6 | 0.00 | 0.00 | 0.00 | 80 | 1012.9 |
| 20260509053018 | 4 | 30 | 0.0 | 0.0 | 0.00 | 0.00 | 0.00 | 79 | 1013.0 |
| 20260509051515 | 5 | 29 | 0.0 | 0.0 | 0.00 | 0.00 | 0.00 | 78 | 1012.9 |
| 20260509050018 | 5 | 30 | 0.0 | 0.0 | 0.00 | 0.00 | 0.00 | 77 | 1012.9 |
| 20260509044510 | 5 | 29 | 0.0 | 0.0 | 0.00 | 0.00 | 0.00 | 76 | 1012.9 |
| 20260509043009 | 5 | 29 | 0.0 | 0.0 | 0.00 | 0.00 | 0.00 | 75 | 1012.7 |
| 20260509041505 | 6 | 29 | 0.0 | 0.0 | 0.00 | 0.00 | 0.00 | 75 | 1012.5 |
| 20260509040003 | 6 | 29 | 0.0 | 0.0 | 0.00 | 0.00 | 0.00 | 73 | 1012.4 |
| 20260509034502 | 6 | 29 | 0.0 | 0.0 | 0.00 | 0.00 | 0.00 | 73 | 1012.5 |
| 20260509033101 | 6 | 29 | 0.0 | 0.0 | 0.00 | 0.00 | 0.00 | 73 | 1012.5 |
| 20260509033001 | 6 | 29 | 0.0 | 0.0 | 0.00 | 0.00 | 0.00 | 73 | 1012.5 |
| 20260509031603 | 7 | 29 | 0.0 | 0.0 | 0.00 | 0.00 | 0.00 | 72 | 1012.4 |
| 20260509030114 | 7 | 29 | 0.0 | 0.0 | 0.00 | 0.00 | 0.00 | 72 | 1012.4 |
| 20260509024601 | 7 | 29 | 0.0 | 0.0 | 0.00 | 0.00 | 0.00 | 69 | 1012.2 |
| 20260509023058 | 7 | 29 | 0.0 | 0.0 | 0.00 | 0.00 | 0.00 | 68 | 1012.1 |
| 20260509021554 | 8 | 29 | 0.0 | 0.0 | 0.00 | 0.00 | 0.00 | 67 | 1012.0 |
| 20260509014549 | 8 | 29 | 0.0 | 3.2 | 0.00 | 0.00 | 0.00 | 66 | 1011.4 |
| 20260509013046 | 8 | 21 | 0.0 | 0.0 | 0.00 | 0.00 | 0.00 | 65 | 1011.2 |
| 20260509011545 | 8 | 21 | 0.0 | 0.0 | 0.00 | 0.00 | 0.00 | 64 | 1010.9 |
| 20260509010043 | 8 | 21 | 0.0 | 0.0 | 0.00 | 0.00 | 0.00 | 62 | 1010.6 |
| 20260509004552 | 9 | 21 | 0.0 | 0.0 | 0.00 | 0.00 | 0.00 | 60 | 1010.4 |
| 20260509003048 | 10 | 343 | 0.0 | 0.0 | 0.00 | 0.00 | 0.00 | 58 | 1010.0 |
| 20260509001535 | 10 | 343 | 0.0 | 0.0 | 0.00 | 0.00 | 0.00 | 55 | 1009.5 |
| 20260509000033 | 11 | 323 | 0.0 | 0.0 | 0.00 | 0.00 | 0.00 | 52 | 1009.3 |
| 20260508234531 | 12 | 277 | 0.0 | 1.6 | 0.00 | 0.00 | 0.00 | 49 | 1009.0 |
| 20260508233031 | 12 | 332 | 0.0 | 4.8 | 0.00 | 0.00 | 0.00 | 47 | 1008.8 |
| 20260508231531 | 13 | 271 | 0.0 | 8.0 | 0.00 | 0.00 | 0.00 | 48 | 1008.7 |
| 20260508230031 | 13 | 223 | 0.0 | 9.7 | 0.00 | 0.00 | 0.00 | 45 | 1008.6 |
| 20260508224538 | 14 | 267 | 3.2 | 12.9 | 0.00 | 0.00 | 0.00 | 43 | 1008.4 |
| 20260508223042 | 14 | 290 | 1.6 | 12.9 | 0.00 | 0.00 | 0.00 | 43 | 1008.2 |
| 20260508221530 | 14 | 190 | 0.0 | 16.1 | 0.00 | 0.00 | 0.00 | 43 | 1008.4 |
| 20260508220029 | 14 | 355 | 0.0 | 19.3 | 0.00 | 0.00 | 0.00 | 43 | 1008.3 |
| 20260508214529 | 15 | 303 | 1.6 | 17.7 | 0.00 | 0.00 | 0.00 | 42 | 1008.1 |
| 20260508213028 | 14 | 325 | 0.0 | 8.0 | 0.00 | 0.00 | 0.00 | 43 | 1008.0 |
| 20260508211528 | 15 | 277 | 4.8 | 24.1 | 0.00 | 0.00 | 0.00 | 43 | 1008.0 |
| 20260508210030 | 16 | 317 | 3.2 | 17.7 | 0.00 | 0.00 | 0.00 | 42 | 1008.0 |
| 20260508204529 | 15 | 181 | 1.6 | 20.9 | 0.00 | 0.00 | 0.00 | 41 | 1007.9 |
| 20260508203026 | 15 | 249 | 3.2 | 16.1 | 0.00 | 0.00 | 0.00 | 41 | 1007.7 |
| 20260508201527 | 15 | 306 | 6.4 | 17.7 | 0.00 | 0.00 | 0.00 | 41 | 1007.6 |
| 20260508200026 | 15 | 281 | 4.8 | 19.3 | 0.00 | 0.00 | 0.00 | 40 | 1007.4 |
| 20260508194533 | 16 | 264 | 4.8 | 20.9 | 0.00 | 0.00 | 0.00 | 38 | 1007.1 |
| 20260508193023 | 16 | 329 | 1.6 | 19.3 | 0.00 | 0.00 | 0.00 | 38 | 1007.2 |
| 20260508191532 | 15 | 347 | 4.8 | 16.1 | 0.00 | 0.00 | 0.00 | 35 | 1007.2 |
| 20260508190024 | 16 | 69 | 4.8 | 22.5 | 0.00 | 0.00 | 0.00 | 38 | 1007.2 |
| 20260508184524 | 15 | 155 | 1.6 | 24.1 | 0.00 | 0.00 | 0.00 | 36 | 1007.2 |